TimePST,TemperatureF,Dew PointF,Humidity,Sea Level PressureIn,VisibilityMPH,Wind Direction,Wind SpeedMPH,Gust SpeedMPH,PrecipitationIn,Events,Conditions,WindDirDegrees,DateUTC
12:53 AM,50.0,37.0,61,30.11,10.0,ESE,4.6,-,N/A,,Mostly Cloudy,110,2013-12-07 08:53:00
1:53 AM,50.0,37.0,61,30.11,10.0,East,3.5,-,N/A,,Scattered Clouds,100,2013-12-07 09:53:00
2:53 AM,48.9,37.9,66,30.09,10.0,Calm,Calm,-,N/A,,Overcast,0,2013-12-07 10:53:00
3:53 AM,50.0,37.9,63,30.07,10.0,Calm,Calm,-,N/A,,Overcast,0,2013-12-07 11:53:00
4:53 AM,48.9,37.9,66,30.08,10.0,Calm,Calm,-,N/A,,Mostly Cloudy,0,2013-12-07 12:53:00
5:53 AM,48.9,37.9,66,30.09,10.0,Calm,Calm,-,N/A,,Mostly Cloudy,0,2013-12-07 13:53:00
6:53 AM,51.1,39.0,63,30.10,10.0,Calm,Calm,-,N/A,,Mostly Cloudy,0,2013-12-07 14:53:00
7:53 AM,53.1,39.9,61,30.10,10.0,Calm,Calm,-,N/A,,Mostly Cloudy,0,2013-12-07 15:53:00
8:53 AM,54.0,42.1,64,30.11,10.0,SSW,3.5,-,0.00,Rain,Light Rain,210,2013-12-07 16:53:00
9:48 AM,53.6,44.6,72,30.10,7.0,SSE,3.5,-,0.01,Rain,Light Rain,160,2013-12-07 17:48:00
9:53 AM,54.0,45.0,72,30.10,7.0,SSE,3.5,-,0.01,Rain,Light Rain,160,2013-12-07 17:53:00
10:53 AM,54.0,50.0,86,30.09,5.0,SSW,6.9,-,0.05,Rain,Light Rain,210,2013-12-07 18:53:00
11:09 AM,53.6,50.0,88,30.08,2.5,SSW,8.1,-,0.02,Rain,Light Rain,210,2013-12-07 19:09:00
11:22 AM,53.6,51.8,94,30.07,4.0,South,9.2,-,0.05,Rain,Light Rain,190,2013-12-07 19:22:00
11:53 AM,55.0,51.1,86,30.04,7.0,South,9.2,-,0.06,Rain,Light Rain,180,2013-12-07 19:53:00
12:40 PM,59.0,48.2,67,30.02,10.0,WSW,16.1,21.9,0.00,Rain,Light Rain,240,2013-12-07 20:40:00
12:53 PM,59.0,48.9,69,30.01,10.0,WSW,11.5,18.4,0.00,,Mostly Cloudy,250,2013-12-07 20:53:00
1:06 PM,59.0,48.2,67,30.01,7.0,WNW,11.5,24.2,0.00,Rain,Light Rain,290,2013-12-07 21:06:00
1:38 PM,55.4,51.8,88,30.01,10.0,West,3.5,-,0.02,,Overcast,280,2013-12-07 21:38:00
1:53 PM,57.0,50.0,77,30.01,10.0,WNW,5.8,-,0.02,,Overcast,290,2013-12-07 21:53:00
2:53 PM,57.9,46.9,67,30.01,10.0,West,11.5,18.4,N/A,,Mostly Cloudy,270,2013-12-07 22:53:00
3:53 PM,57.9,41.0,53,30.01,10.0,West,5.8,-,N/A,,Mostly Cloudy,260,2013-12-07 23:53:00
4:53 PM,55.9,37.9,51,30.02,10.0,West,3.5,-,N/A,,Scattered Clouds,260,2013-12-08 00:53:00
5:53 PM,55.0,36.0,49,30.04,10.0,WSW,6.9,-,N/A,,Scattered Clouds,250,2013-12-08 01:53:00
6:53 PM,55.0,39.0,55,30.06,10.0,West,8.1,-,N/A,,Mostly Cloudy,260,2013-12-08 02:53:00
7:53 PM,55.0,41.0,59,30.06,10.0,WSW,3.5,-,N/A,,Scattered Clouds,250,2013-12-08 03:53:00
8:53 PM,51.1,41.0,68,30.06,10.0,South,3.5,-,N/A,,Scattered Clouds,170,2013-12-08 04:53:00
9:53 PM,50.0,37.9,63,30.08,10.0,WNW,3.5,-,N/A,,Clear,290,2013-12-08 05:53:00
10:53 PM,48.9,33.1,54,30.10,10.0,Calm,Calm,-,N/A,,Clear,0,2013-12-08 06:53:00
11:53 PM,46.9,30.9,54,30.10,10.0,Calm,Calm,-,N/A,,Clear,0,2013-12-08 07:53:00